Estación de Tamelaike INIA

Ultimos registro cada 15 minutos 63
Estación Fecha / Hora Temperatura Humedad Lluvia Velocidad Dirección Radiación Presion
63 Tamelaike INIA 05-05-2026 15:30 9,4 61,3 0 5,4 277 272 997
62 Tamelaike INIA 05-05-2026 15:15 9,5 62,6 0 4,7 282 300 997
61 Tamelaike INIA 05-05-2026 15:00 9,6 66,8 0 4,3 285 326 997
60 Tamelaike INIA 05-05-2026 14:45 9,5 63 0 4,5 280 350 999
59 Tamelaike INIA 05-05-2026 14:30 9,2 68 0 4,1 290 364 1014
58 Tamelaike INIA 05-05-2026 14:15 9 65,7 0 3,7 288 334 996
57 Tamelaike INIA 05-05-2026 14:00 9 67 0 5 285 340 999
56 Tamelaike INIA 05-05-2026 13:45 9,1 66,1 0 6,1 277 474 998
55 Tamelaike INIA 05-05-2026 13:30 8,8 66 0 6,7 274 452 995
54 Tamelaike INIA 05-05-2026 13:15 8,7 67,4 0 6,6 282 434 997
53 Tamelaike INIA 05-05-2026 13:00 8,6 67,6 0 7,4 276 455 996
52 Tamelaike INIA 05-05-2026 12:45 8,4 67,3 0 7,4 279 400 996
51 Tamelaike INIA 05-05-2026 12:30 8,3 68,5 0 7,3 278 437 996
50 Tamelaike INIA 05-05-2026 12:15 8,2 69,2 0 7,6 278 427 1014
49 Tamelaike INIA 05-05-2026 12:00 8,1 72 0 7,9 278 419 996
48 Tamelaike INIA 05-05-2026 11:45 7,9 73 0 8,1 277 390 995
47 Tamelaike INIA 05-05-2026 11:30 7,8 71,2 0 8,1 279 404 995
46 Tamelaike INIA 05-05-2026 11:15 7,7 71,5 0 7,4 283 370 1014
45 Tamelaike INIA 05-05-2026 11:00 7,6 72,5 0 7,2 277 347 996
44 Tamelaike INIA 05-05-2026 10:45 7,3 73,4 0 5,5 284 322 1017
43 Tamelaike INIA 05-05-2026 10:30 7 76,5 0 3,4 294 294 1014
42 Tamelaike INIA 05-05-2026 10:15 6,6 78,3 0 3,4 295 265 1014
41 Tamelaike INIA 05-05-2026 10:00 6,4 78,9 0 4,3 285 236 1014
40 Tamelaike INIA 05-05-2026 09:45 6,2 80,3 0 5,2 274 198 995
39 Tamelaike INIA 05-05-2026 09:30 6 84 0 4,5 279 172 994
38 Tamelaike INIA 05-05-2026 09:15 5,8 82,1 0 4,2 279 153 995
37 Tamelaike INIA 05-05-2026 09:00 5,6 83,1 0 5,3 273 113 995
36 Tamelaike INIA 05-05-2026 08:45 5,4 83 0 4,3 266 88 995
35 Tamelaike INIA 05-05-2026 08:30 4,9 84 0 2,6 252 39 995
34 Tamelaike INIA 05-05-2026 08:15 4,8 84,7 0 4,3 276 15 995
33 Tamelaike INIA 05-05-2026 08:00 4,6 87,9 0 2,2 275 6 995
32 Tamelaike INIA 05-05-2026 07:45 5 86,1 0 4,6 275 1 995
31 Tamelaike INIA 05-05-2026 07:30 4,8 82,3 0 5,8 277 0 995
30 Tamelaike INIA 05-05-2026 07:15 4,5 88,3 0 4,3 267 0 994
29 Tamelaike INIA 05-05-2026 07:00 4,9 86,2 0 4,8 275 0 994
28 Tamelaike INIA 05-05-2026 06:45 5 85,8 0 4,2 280 0 1013
27 Tamelaike INIA 05-05-2026 06:30 5,2 83,6 0 4,5 280 0 994
26 Tamelaike INIA 05-05-2026 06:15 5,1 83,1 0 4,7 285 0 1013
25 Tamelaike INIA 05-05-2026 06:00 5,1 83,5 0 4,1 285 0 994
24 Tamelaike INIA 05-05-2026 05:45 5,2 83,1 0 3,7 283 0 993
23 Tamelaike INIA 05-05-2026 05:30 5,3 80,9 0 5,1 275 0 994
22 Tamelaike INIA 05-05-2026 05:15 5,3 81,6 0 5,2 279 0 993
21 Tamelaike INIA 05-05-2026 05:00 5 81,2 0 4,9 282 0 993
20 Tamelaike INIA 05-05-2026 04:45 4,7 84,6 0 3,6 282 0 993
19 Tamelaike INIA 05-05-2026 04:30 4,5 87,7 0 3,4 280 0 993
18 Tamelaike INIA 05-05-2026 04:15 4,4 88,5 0 4 276 0 993
17 Tamelaike INIA 05-05-2026 04:00 4,5 88,1 0 4,8 273 0 992
16 Tamelaike INIA 05-05-2026 03:45 4,7 88,4 0 5,6 273 0 992
15 Tamelaike INIA 05-05-2026 03:30 5 87,3 0 6,8 275 0 992
14 Tamelaike INIA 05-05-2026 03:15 5,1 86,4 0 7,6 276 0 991
13 Tamelaike INIA 05-05-2026 03:00 5,1 85 0 7,7 278 0 1011
12 Tamelaike INIA 05-05-2026 02:45 5,1 84,4 0 5,5 276 0 992
11 Tamelaike INIA 05-05-2026 02:30 5,2 83,9 0 6 266 0 1010
10 Tamelaike INIA 05-05-2026 02:15 5,2 83,4 0 5,8 263 0 992
9 Tamelaike INIA 05-05-2026 02:00 5,2 85,4 0 6,8 268 0 1009
8 Tamelaike INIA 05-05-2026 01:45 5,5 84,4 0 7,5 266 0 994
7 Tamelaike INIA 05-05-2026 01:30 5,4 82,6 0 7,7 264 0 991
6 Tamelaike INIA 05-05-2026 01:15 5,4 86 0 7 263 0 990
5 Tamelaike INIA 05-05-2026 01:00 5,5 85,1 0 8,1 257 0 991
4 Tamelaike INIA 05-05-2026 00:45 5,6 84,8 0 8,6 263 0 991
3 Tamelaike INIA 05-05-2026 00:30 5,6 84,6 0 8,9 269 0 990
2 Tamelaike INIA 05-05-2026 00:15 5,8 82,1 0 9,5 264 0 990
1 Tamelaike INIA 05-05-2026 00:00 5,7 82,7 0 8 267 0 1009